Satellite-Ground Cal/Val Site Overpasses Predictions

Prediction of Satellite NPP Overpassing Cal/Val Site: Antarctic Dome C

Ground Cal/Val Site Location: Latitude: -75.10, Longitude: 123.35; Satellite-Ground Site NADIR distance within 100 km.

Table of predicted overpasses for the next 14.0 days since TLE Epoch: 1/26/2018
Interval Starting Time Ending Time Minimum Distance Time Minimum Distance (km)
1 01/26/2018 15:07:36 01/26/2018 15:07:43 01/26/2018 15:07:39 96.01
2 01/27/2018 14:48:35 01/27/2018 14:49:04 01/27/2018 14:48:49 15.32
3 01/29/2018 07:31:23 01/29/2018 07:31:52 01/29/2018 07:31:37 2.76
4 02/01/2018 14:54:47 02/01/2018 14:55:16 02/01/2018 14:55:01 21.07
5 02/02/2018 14:36:05 02/02/2018 14:36:19 02/02/2018 14:36:12 86.19
6 02/03/2018 07:37:37 02/03/2018 07:38:04 02/03/2018 07:37:51 36.19
7 02/04/2018 07:18:50 02/04/2018 07:19:09 02/04/2018 07:19:00 74.00
8 02/06/2018 15:01:03 02/06/2018 15:01:27 02/06/2018 15:01:15 57.61
9 02/07/2018 14:42:13 02/07/2018 14:42:37 02/07/2018 14:42:25 51.56
10 02/08/2018 07:43:52 02/08/2018 07:44:13 02/08/2018 07:44:03 71.12


NCC Satellite Cal/Val Overpasses Prediction Service
